| time (UTC) | temp F | wind direction | speed knots | gust knots | rain 1hr in | rain 24hr in | rain mn in | humidity % | barometer mb |
| 20260502123012 | 40 | 85 | 0.9 | 2.6 | 0.00 | 0.00 | 0.00 | 88 | 1022.2 |
| 20260502121508 | 38 | 47 | 0.0 | 1.7 | 0.00 | 0.00 | 0.00 | 88 | 1022.1 |
| 20260502114528 | 38 | 34 | 0.9 | 1.7 | 0.00 | 0.00 | 0.00 | 87 | 1022.0 |
| 20260502113005 | 37 | 80 | 0.0 | 1.7 | 0.00 | 0.00 | 0.00 | 87 | 1021.6 |
| 20260502111506 | 37 | 26 | 0.9 | 1.7 | 0.00 | 0.00 | 0.00 | 86 | 1021.7 |
| 20260502110014 | 37 | 26 | 0.0 | 1.7 | 0.00 | 0.00 | 0.00 | 86 | 1021.3 |
| 20260502104521 | 38 | 26 | 0.0 | 0.0 | 0.00 | 0.00 | 0.00 | 86 | 1021.2 |
| 20260502103021 | 38 | 26 | 0.0 | 1.7 | 0.00 | 0.00 | 0.00 | 86 | 1021.3 |
| 20260502101505 | 38 | 26 | 0.9 | 1.7 | 0.00 | 0.00 | 0.00 | 86 | 1021.3 |
| 20260502091523 | 39 | 133 | 0.0 | 1.7 | 0.00 | 0.00 | 0.00 | 84 | 1020.5 |
| 20260502071519 | 42 | 334 | 0.0 | 1.7 | 0.00 | 0.00 | 0.00 | 78 | 1020.6 |
| 20260502070026 | 42 | 325 | 0.0 | 1.7 | 0.00 | 0.00 | 0.00 | 77 | 1020.5 |
| 20260502064541 | 43 | 325 | 0.0 | 1.7 | 0.00 | 0.00 | 0.00 | 75 | 1020.7 |
| 20260502063019 | 44 | 306 | 0.0 | 1.7 | 0.00 | 0.00 | 0.00 | 74 | 1020.5 |
| 20260502061503 | 44 | 297 | 0.0 | 1.7 | 0.00 | 0.00 | 0.00 | 71 | 1020.6 |
| 20260502060043 | 46 | 252 | 0.0 | 1.7 | 0.00 | 0.00 | 0.00 | 69 | 1020.6 |
| 20260502054507 | 47 | 258 | 0.0 | 1.7 | 0.00 | 0.00 | 0.00 | 70 | 1020.4 |
| 20260502053004 | 48 | 254 | 0.0 | 1.7 | 0.00 | 0.00 | 0.00 | 67 | 1020.4 |
| 20260502051505 | 48 | 247 | 0.0 | 1.7 | 0.00 | 0.00 | 0.00 | 66 | 1020.2 |
| 20260502050004 | 49 | 252 | 0.0 | 1.7 | 0.00 | 0.00 | 0.00 | 64 | 1020.2 |
| 20260502044506 | 50 | 262 | 0.0 | 2.6 | 0.00 | 0.00 | 0.00 | 62 | 1020.3 |
| 20260502043004 | 51 | 267 | 0.0 | 1.7 | 0.00 | 0.00 | 0.00 | 60 | 1020.4 |
| 20260502041508 | 53 | 342 | 0.0 | 3.5 | 0.00 | 0.00 | 0.00 | 59 | 1020.5 |
| 20260502040004 | 51 | 275 | 1.7 | 6.1 | 0.00 | 0.00 | 0.00 | 62 | 1020.4 |
| 20260502034504 | 50 | 236 | 0.0 | 1.7 | 0.00 | 0.00 | 0.00 | 63 | 1019.7 |
| 20260502033006 | 51 | 225 | 0.0 | 2.6 | 0.00 | 0.00 | 0.00 | 61 | 1019.4 |
| 20260502031504 | 53 | 229 | 0.9 | 1.7 | 0.00 | 0.00 | 0.00 | 58 | 1019.4 |
| 20260502030008 | 53 | 244 | 0.9 | 1.7 | 0.00 | 0.00 | 0.00 | 56 | 1019.3 |
| 20260502024513 | 54 | 225 | 0.0 | 2.6 | 0.00 | 0.00 | 0.00 | 55 | 1019.2 |
| 20260502023006 | 55 | 221 | 0.9 | 1.7 | 0.00 | 0.00 | 0.00 | 52 | 1018.9 |
| 20260502021509 | 56 | 233 | 0.0 | 1.7 | 0.00 | 0.00 | 0.00 | 51 | 1018.8 |
| 20260502020014 | 56 | 244 | 0.9 | 1.7 | 0.00 | 0.00 | 0.00 | 48 | 1018.6 |
| 20260502014511 | 58 | 230 | 0.0 | 1.7 | 0.00 | 0.00 | 0.00 | 46 | 1018.5 |
| 20260502013006 | 59 | 215 | 0.0 | 2.6 | 0.00 | 0.00 | 0.00 | 45 | 1018.4 |
| 20260502011508 | 60 | 215 | 0.0 | 2.6 | 0.00 | 0.00 | 0.00 | 45 | 1018.3 |
| 20260502010024 | 61 | 208 | 0.9 | 3.5 | 0.00 | 0.00 | 0.00 | 42 | 1018.3 |
| 20260502004524 | 61 | 257 | 0.9 | 3.5 | 0.00 | 0.00 | 0.00 | 39 | 1018.3 |
| 20260502003002 | 62 | 280 | 0.0 | 1.7 | 0.00 | 0.00 | 0.00 | 38 | 1018.4 |
| 20260502001505 | 62 | 285 | 0.0 | 3.5 | 0.00 | 0.00 | 0.00 | 37 | 1018.3 |
| 20260502000008 | 63 | 329 | 1.7 | 5.2 | 0.00 | 0.00 | 0.00 | 36 | 1018.4 |
| 20260501234514 | 63 | 306 | 0.0 | 1.7 | 0.00 | 0.00 | 0.00 | 36 | 1018.4 |
| 20260501233016 | 65 | 302 | 0.9 | 3.5 | 0.00 | 0.00 | 0.00 | 34 | 1018.3 |
| 20260501231503 | 66 | 324 | 0.0 | 7.0 | 0.00 | 0.00 | 0.00 | 33 | 1018.2 |
| 20260501230023 | 68 | 338 | 0.9 | 6.1 | 0.00 | 0.00 | 0.00 | 32 | 1018.3 |
| 20260501224514 | 67 | 318 | 0.9 | 6.1 | 0.00 | 0.00 | 0.00 | 33 | 1018.3 |
| 20260501223017 | 69 | 289 | 0.9 | 6.1 | 0.00 | 0.00 | 0.00 | 31 | 1018.3 |
| 20260501221517 | 68 | 310 | 1.7 | 5.2 | 0.00 | 0.00 | 0.00 | 33 | 1018.2 |
| 20260501220009 | 65 | 325 | 1.7 | 7.0 | 0.00 | 0.00 | 0.00 | 33 | 1018.4 |
| 20260501214513 | 66 | 304 | 0.0 | 4.3 | 0.00 | 0.00 | 0.00 | 35 | 1018.6 |
| 20260501213018 | 66 | 257 | 0.0 | 7.0 | 0.00 | 0.00 | 0.00 | 36 | 1018.7 |
| 20260501211518 | 63 | 246 | 1.7 | 7.0 | 0.00 | 0.00 | 0.00 | 38 | 1018.9 |
| 20260501210022 | 64 | 254 | 0.0 | 5.2 | 0.00 | 0.00 | 0.00 | 38 | 1019.2 |
| 20260501204527 | 65 | 291 | 0.0 | 7.0 | 0.00 | 0.00 | 0.00 | 35 | 1019.6 |
| 20260501203016 | 65 | 278 | 0.0 | 5.2 | 0.00 | 0.00 | 0.00 | 35 | 1019.5 |
| 20260501201505 | 64 | 163 | 1.7 | 7.0 | 0.00 | 0.00 | 0.00 | 35 | 1019.7 |
| 20260501200024 | 65 | 153 | 3.5 | 5.2 | 0.00 | 0.00 | 0.00 | 32 | 1020.0 |
| 20260501194526 | 63 | 336 | 0.9 | 6.1 | 0.00 | 0.00 | 0.00 | 36 | 1020.1 |
| 20260501193015 | 65 | 336 | 0.9 | 5.2 | 0.00 | 0.00 | 0.00 | 35 | 1020.2 |
| 20260501191505 | 65 | 319 | 0.9 | 3.5 | 0.00 | 0.00 | 0.00 | 34 | 1020.4 |
| 20260501190003 | 62 | 352 | 0.9 | 3.5 | 0.00 | 0.00 | 0.00 | 36 | 1020.4 |
| 20260501184508 | 62 | 142 | 1.7 | 6.1 | 0.00 | 0.00 | 0.00 | 35 | 1020.5 |
| 20260501183013 | 63 | 281 | 2.6 | 6.1 | 0.00 | 0.00 | 0.00 | 35 | 1020.8 |
| 20260501181517 | 63 | 17 | 1.7 | 3.5 | 0.00 | 0.00 | 0.00 | 35 | 1020.9 |
| 20260501180004 | 63 | 346 | 3.5 | 7.0 | 0.00 | 0.00 | 0.00 | 40 | 1021.0 |
| 20260501174506 | 61 | 259 | 1.7 | 4.3 | 0.00 | 0.00 | 0.00 | 47 | 1021.4 |
| 20260501173012 | 61 | 350 | 1.7 | 7.8 | 0.00 | 0.00 | 0.00 | 46 | 1021.5 |
| 20260501171517 | 60 | 273 | 1.7 | 4.3 | 0.00 | 0.00 | 0.00 | 49 | 1021.7 |
| 20260501170020 | 60 | 327 | 0.0 | 5.2 | 0.00 | 0.00 | 0.00 | 53 | 1021.8 |
| 20260501164504 | 60 | 225 | 0.9 | 5.2 | 0.00 | 0.00 | 0.00 | 53 | 1021.8 |
| 20260501163012 | 59 | 286 | 0.9 | 5.2 | 0.00 | 0.00 | 0.00 | 54 | 1021.8 |
| 20260501161514 | 59 | 300 | 1.7 | 4.3 | 0.00 | 0.00 | 0.00 | 58 | 1021.8 |
| 20260501160019 | 58 | 329 | 0.0 | 7.8 | 0.00 | 0.00 | 0.00 | 56 | 1021.9 |
| 20260501154534 | 58 | 322 | 0.9 | 4.3 | 0.00 | 0.00 | 0.00 | 61 | 1021.8 |
| 20260501153006 | 57 | 291 | 0.9 | 5.2 | 0.00 | 0.00 | 0.00 | 66 | 1021.8 |
| 20260501151513 | 56 | 322 | 0.9 | 3.5 | 0.00 | 0.00 | 0.00 | 68 | 1021.8 |